FW0672 Weather Reports


time (UTC)temp
C
wind
direction
speed
KPH
gust
KPH
rain 1hr
cm
rain 24hr
cm
rain mn
cm
humidity
%
barometer
mb
20260507210020 23 308 9.7 17.7 0.00 0.00 0.00 37 1011.6
20260507205022 23 286 11.3 17.7 0.00 0.00 0.00 37 1011.6
20260507204023 22 314 6.4 9.7 0.00 0.00 0.00 39 1011.6
20260507203024 22 324 11.3 16.1 0.00 0.00 0.00 41 1011.6
20260507202026 21 352 8.0 12.9 0.00 0.00 0.00 43 1011.7
20260507200027 22 327 8.0 14.5 0.00 0.00 0.00 40 1012.0
20260507195022 22 335 8.0 12.9 0.00 0.00 0.00 40 1012.1
20260507194018 22 316 9.7 17.7 0.00 0.00 0.00 42 1012.3
20260507193032 21 262 8.0 12.9 0.00 0.00 0.00 43 1012.4
20260507192115 21 291 9.7 14.5 0.00 0.00 0.00 43 1012.5
20260507191016 20 339 9.7 16.1 0.00 0.00 0.00 44 1012.7
20260507190017 21 315 6.4 8.0 0.00 0.00 0.00 42 1012.9
20260507185019 21 320 6.4 9.7 0.00 0.00 0.00 44 1012.9
20260507184020 21 312 12.9 19.3 0.00 0.00 0.00 43 1012.9
20260507183021 21 351 8.0 14.5 0.00 0.00 0.00 44 1012.9
20260507182022 21 259 9.7 14.5 0.00 0.00 0.00 43 1013.2
20260507181023 21 271 9.7 19.3 0.00 0.00 0.00 45 1013.2
20260507180024 21 347 6.4 11.3 0.00 0.00 0.00 47 1013.6
20260507175026 20 281 11.3 17.7 0.00 0.00 0.00 45 1013.7
20260507174022 21 332 9.7 24.1 0.00 0.00 0.00 45 1014.0
20260507173017 21 310 9.7 14.5 0.00 0.00 0.00 47 1014.2
20260507172030 20 322 11.3 16.1 0.00 0.00 0.00 46 1014.3
20260507171031 19 279 6.4 11.3 0.00 0.00 0.00 46 1014.6
20260507170032 18 279 12.9 27.4 0.00 0.00 0.00 48 1014.9
20260507165116 18 282 11.3 14.5 0.00 0.00 0.00 46 1015.0
20260507164017 19 296 11.3 16.1 0.00 0.00 0.00 46 1015.1
20260507163018 18 320 9.7 17.7 0.00 0.00 0.00 48 1015.1
20260507162019 18 323 11.3 19.3 0.00 0.00 0.00 49 1015.3
20260507161020 18 283 8.0 16.1 0.00 0.00 0.00 48 1015.5
20260507160021 18 277 11.3 19.3 0.00 0.00 0.00 48 1015.6
20260507155023 18 342 9.7 14.5 0.00 0.00 0.00 50 1015.7
20260507154024 17 26 8.0 12.9 0.00 0.00 0.00 51 1015.8
20260507153019 17 319 6.4 16.1 0.00 0.00 0.00 51 1015.8
20260507152015 18 321 9.7 14.5 0.00 0.00 0.00 51 1016.0
20260507151028 17 285 6.4 12.9 0.00 0.00 0.00 52 1016.1
20260507150029 16 346 11.3 16.1 0.00 0.00 0.00 53 1016.4
20260507145111 15 360 9.7 12.9 0.00 0.00 0.00 55 1016.6
20260507144032 15 332 11.3 14.5 0.00 0.00 0.00 55 1016.7
20260507143015 15 304 9.7 16.1 0.00 0.00 0.00 55 1016.9
20260507142017 15 298 4.8 11.3 0.00 0.03 0.00 56 1016.9
20260507141018 15 294 9.7 14.5 0.00 0.03 0.00 55 1017.3
20260507140019 16 345 8.0 11.3 0.00 0.03 0.00 54 1017.4
20260507135020 14 360 6.4 8.0 0.00 0.05 0.00 58 1017.5
20260507134021 13 322 8.0 9.7 0.00 0.05 0.00 58 1017.6
20260507133123 13 325 6.4 8.0 0.00 0.05 0.00 59 1017.6
20260507132017 13 325 6.4 9.7 0.00 0.05 0.00 59 1017.6
20260507131125 13 307 6.4 9.7 0.00 0.05 0.00 61 1017.4
20260507130026 12 324 8.0 14.5 0.00 0.05 0.00 61 1017.5
20260507125028 12 327 8.0 11.3 0.00 0.10 0.00 62 1017.5
20260507123030 12 317 8.0 14.5 0.00 0.15 0.00 63 1017.5
20260507122032 12 305 8.0 11.3 0.00 0.15 0.00 64 1017.4
20260507121015 11 325 8.0 12.9 0.00 0.18 0.00 63 1017.3
20260507120016 11 343 8.0 11.3 0.00 0.18 0.00 63 1017.3
20260507115018 11 333 9.7 11.3 0.00 0.20 0.00 64 1017.3
20260507114019 11 317 8.0 9.7 0.00 0.25 0.00 64 1017.2
20260507113020 11 320 8.0 11.3 0.00 0.30 0.00 65 1017.0
20260507112021 11 333 8.0 12.9 0.00 0.30 0.00 65 1016.9
20260507111016 11 322 8.0 14.5 0.00 0.33 0.00 66 1017.1
20260507110023 11 309 6.4 8.0 0.00 0.33 0.00 67 1017.0
20260507105025 11 317 4.8 4.8 0.00 0.33 0.00 68 1016.8
20260507104026 11 300 4.8 6.4 0.00 0.33 0.00 69 1016.7
20260507103027 11 298 4.8 6.4 0.00 0.33 0.00 71 1016.5
20260507102028 11 344 4.8 6.4 0.00 0.33 0.00 71 1016.4
20260507101029 11 285 4.8 8.0 0.00 0.33 0.00 71 1016.3
20260507100031 11 317 4.8 8.0 0.00 0.33 0.00 72 1016.2
20260507095033 12 319 4.8 6.4 0.00 0.33 0.00 73 1016.2
20260507094016 12 345 1.6 3.2 0.00 0.33 0.00 73 1016.1
20260507093017 12 326 6.4 11.3 0.00 0.33 0.00 73 1016.0
20260507092018 12 337 8.0 14.5 0.00 0.33 0.00 74 1016.1
20260507091019 12 315 6.4 9.7 0.00 0.33 0.00 74 1016.0
20260507090115 12 290 8.0 11.3 0.00 0.33 0.00 77 1016.1
20260507085122 12 305 8.0 9.7 0.00 0.33 0.00 81 1016.0
20260507084023 12 299 6.4 9.7 0.00 0.33 0.00 82 1016.0
20260507083025 12 345 8.0 9.7 0.00 0.33 0.00 82 1015.9
20260507082127 13 337 4.8 8.0 0.00 0.33 0.00 81 1016.0
20260507081027 13 323 4.8 8.0 0.00 0.33 0.00 82 1015.9
20260507080029 12 281 4.8 8.0 0.00 0.33 0.00 82 1015.5
20260507075029 12 284 4.8 6.4 0.00 0.33 0.00 82 1015.4
20260507074031 12 313 8.0 11.3 0.00 0.33 0.00 82 1015.4
20260507073032 12 285 6.4 8.0 0.00 0.33 0.00 83 1015.5
20260507072015 12 289 6.4 8.0 0.00 0.33 0.00 83 1015.3
20260507071016 12 276 6.4 11.3 0.00 0.33 0.00 83 1015.4
20260507070017 12 298 4.8 8.0 0.00 0.33 0.00 84 1015.5
20260507065019 12 305 3.2 6.4 0.00 0.33 0.00 84 1015.7
20260507064020 12 316 6.4 8.0 0.00 0.33 0.00 84 1015.8
20260507063021 12 334 4.8 6.4 0.00 0.33 0.00 84 1015.9
20260507062022 12 327 6.4 11.3 0.00 0.33 0.00 84 1016.1
20260507061023 12 267 8.0 9.7 0.00 0.33 0.00 83 1016.3
20260507060124 13 279 6.4 9.7 0.00 0.33 0.00 83 1016.1
20260507054026 13 302 6.4 9.7 0.00 0.33 0.00 82 1016.2
20260507053027 13 284 6.4 8.0 0.00 0.33 0.00 82 1015.9
20260507052109 13 293 6.4 9.7 0.00 0.33 0.00 82 1015.7
20260507051124 13 327 6.4 8.0 0.00 0.33 0.00 80 1015.7
20260507050018 13 309 8.0 9.7 0.00 0.33 0.00 80 1015.7
20260507045032 13 312 8.0 11.3 0.00 0.33 0.00 81 1015.8
20260507044015 13 278 8.0 14.5 0.00 0.33 0.00 83 1015.6
20260507043017 13 292 8.0 12.9 0.00 0.33 0.00 83 1015.4
20260507042018 13 298 9.7 14.5 0.00 0.33 0.00 82 1015.4
20260507041120 13 303 11.3 12.9 0.00 0.33 0.00 84 1015.8
20260507040021 14 291 11.3 12.9 0.00 0.33 0.00 88 1015.7
20260507035022 14 283 6.4 9.7 0.00 0.33 0.33 87 1015.5
20260507034024 14 297 8.0 11.3 0.00 0.33 0.33 87 1015.4
20260507033126 14 294 11.3 20.9 0.00 0.33 0.33 88 1015.5
20260507032027 14 317 11.3 17.7 0.00 0.33 0.33 88 1015.6
20260507031028 14 318 8.0 11.3 0.00 0.33 0.33 89 1015.2
20260507030123 15 307 6.4 11.3 0.00 0.33 0.33 88 1015.5
20260507025019 15 286 8.0 9.7 0.00 0.33 0.33 85 1015.5
20260507024153 15 289 9.7 14.5 0.00 0.33 0.33 84 1015.4
20260507022016 15 314 9.7 12.9 0.00 0.33 0.33 84 1015.2
20260507021018 15 312 4.8 9.7 0.00 0.33 0.33 84 1014.9
20260507020020 15 295 8.0 11.3 0.00 0.33 0.33 84 1014.8
20260507015021 16 307 9.7 16.1 0.00 0.33 0.33 83 1014.8
20260507014022 16 271 6.4 8.0 0.00 0.33 0.33 82 1014.9
20260507013023 16 281 11.3 17.7 0.00 0.33 0.33 82 1014.7
20260507012019 16 294 9.7 12.9 0.00 0.33 0.33 82 1014.4
20260507010021 17 338 9.7 17.7 0.00 0.33 0.33 82 1014.4
20260507005023 17 308 9.7 14.5 0.00 0.33 0.33 82 1014.6
20260507003126 17 280 6.4 11.3 0.00 0.33 0.33 82 1014.3
20260507002027 17 248 11.3 14.5 0.00 0.33 0.33 82 1014.2
20260507001028 18 290 8.0 12.9 0.00 0.33 0.33 84 1014.3
20260507000029 18 287 6.4 11.3 0.00 0.33 0.33 85 1013.9
20260506235111 18 284 8.0 11.3 0.00 0.33 0.33 85 1013.8
20260506234032 18 313 9.7 12.9 0.00 0.33 0.33 85 1013.7
20260506233015 18 307 4.8 9.7 0.00 0.33 0.33 84 1013.6
20260506232117 18 262 8.0 11.3 0.00 0.33 0.33 84 1012.9
20260506231018 18 308 8.0 12.9 0.00 0.33 0.33 84 1013.0
20260506225020 20 290 9.7 14.5 0.00 0.33 0.33 82 1012.8
20260506224022 20 279 12.9 20.9 0.00 0.33 0.33 80 1012.7
20260506223017 20 255 11.3 17.7 0.00 0.33 0.33 83 1012.7
20260506221025 20 303 6.4 9.7 0.00 0.33 0.33 86 1012.5
20260506220026 20 295 11.3 16.1 0.00 0.33 0.33 86 1012.2
20260506215028 22 335 9.7 14.5 0.00 0.33 0.33 83 1012.0
20260506214029 22 349 4.8 8.0 0.00 0.33 0.33 85 1011.9
20260506213030 22 65 4.8 6.4 0.00 0.33 0.33 85 1012.0
20260506212032 21 46 6.4 8.0 0.00 0.33 0.33 85 1012.0
20260506211014 21 37 4.8 6.4 0.00 0.33 0.33 85 1011.6